User: anonymous   Login
Location: Unspecified
(0.0000°N, 0.0000°E)
Time: 18:37:48
(UTC+01:00)
Language:

NOAA 12 - Orbit

View from above orbital plane
View from above orbital plane
View from above satellite
View from above satellite

Ground track
Ground track

The orbit data is extracted from the following two-line orbital elements,

1 21263U 91032A   18017.53728680 -.00000012 +00000-0 +13167-4 0  9991
2 21263 098.5481 041.5233 0013987 020.3685 339.8050 14.25859710387278
Epoch (UTC): 17 January 2018 12:53:41
Eccentricity: 0.0013987
inclination: 98.5481°
perigee height: 795 km
apogee height: 815 km
right ascension of ascending node: 41.5233°
argument of perigee: 20.3685°
revolutions per day: 14.25859710
mean anomaly at epoch: 339.8050°
orbit number at epoch: 38727

The dashed part of the orbit path shows where the satellite is in the earth's shadow,  

DLR